[[{"header":{"parameterUnit":"m.s-1","parameterCategory":1,"la1":30.2991,"la2":30.254,"lo1":-89.0895,"lo2":-89.0444,"dy":0.0017,"dx":0.0017,"nx":28,"ny":28,"refTime":"2024-04-03T09:00:00:Z","depth":0,"parameterNumber":2,"parameterNumberName":"U-component_of_WINDS"},"data":[0,0,0,0,0,0,0,0,0,0,0,0,0,0,0,0,0,0,0,0,0,0,0,0,0,0,0,0,0,0,0,0,0,0,0,0,0,0,0,0,0,0,0,0,0,0,0,0,0,0,0,0,0,0,0,0,0,0,5.2122,5.2123,0,5.2209,5.221,5.2211,5.2223,5.2222,5.2222,5.2221,5.2309,5.2312,5.2315,0,0,0,0,0,0,0,0,0,0,0,0,0,5.1967,5.1969,5.2122,5.2123,5.2124,5.2209,5.221,5.2211,5.2223,5.2222,5.2221,5.222,5.2308,5.2312,5.2315,0,0,0,0,0,0,0,0,0,0,0,0,0,5.2042,5.197,5.2122,5.214,5.2143,5.2209,5.221,5.2212,5.2224,5.2222,5.2221,5.222,5.2307,5.2311,5.2316,5.2369,0,0,5.233,5.2332,0,0,0,0,0,0,0,0,5.2038,5.2048,5.2137,5.2139,5.2142,5.2204,5.2188,5.2264,5.2224,5.2193,5.2221,5.2219,5.2275,5.2282,5.2301,5.2373,5.2377,5.233,5.2333,5.2335,5.2337,0,0,0,0,0,0,0,5.2032,5.2044,5.2156,5.2138,5.2141,5.2145,5.2154,5.2202,5.224,5.2196,5.2197,5.2207,5.2276,5.2297,5.2303,5.2378,5.233,5.2335,5.2337,5.2339,5.25,5.2501,0,0,0,0,0,0,5.2024,5.2039,5.2154,5.2159,5.2086,5.2148,5.2159,5.2185,5.2239,5.2246,5.2208,5.2207,5.2289,5.2298,5.2306,5.2373,5.2335,5.234,5.2342,5.2498,5.25,5.2501,0,0,0,0,0,0,5.202,5.2034,5.215,5.21,5.2115,5.2152,5.2182,5.2188,5.2208,5.2248,5.2255,5.2222,5.2289,5.23,5.2354,5.2376,5.2342,5.2346,5.2496,5.2499,5.2501,5.2505,0,0,0,0,0,0,5.2016,5.2033,5.2053,5.21,5.2117,5.2196,5.2183,5.219,5.2216,5.2216,5.2263,5.227,5.2289,5.2347,5.2358,5.2382,5.235,5.2495,5.2497,5.25,5.2503,5.2508,5.2511,0,0,0,0,0,5.201,5.205,5.2054,5.2067,5.2143,5.2197,5.2207,5.2228,5.2218,5.2239,5.2265,5.2268,5.2372,5.2352,5.2365,5.2391,5.2493,5.2497,5.25,5.2502,5.2507,5.2511,0,0,0,0,0,0,5.2003,5.2056,5.2061,5.2117,5.2153,5.2199,5.2226,5.2232,5.2271,5.2269,5.2293,5.2304,5.2357,5.2379,5.2356,5.2446,5.2432,5.2438,5.2429,5.2434,5.2438,5.2431,5.2353,0,0,0,0,0,5.2009,5.2048,5.2092,5.2137,5.2155,5.2187,5.2211,5.2225,5.2262,5.2277,5.2307,5.2343,5.2384,5.241,5.245,5.2507,5.2518,5.2531,5.2535,5.2538,5.2543,5.2576,5.2583,5.2512,5.2512,5.2512,0,0,5.2019,5.2053,5.2076,5.2137,5.2166,5.2206,5.22,5.2242,5.2272,5.2283,5.2336,5.236,5.2402,5.2458,5.2484,5.2478,5.2565,5.2542,5.2544,5.2548,5.258,5.2587,5.2593,5.2515,5.2514,5.2514,0,0,5.2059,5.2089,5.213,5.216,5.2205,5.2226,5.2236,5.2282,5.2299,5.2352,5.2362,5.2398,5.2468,5.2498,5.2522,5.2576,5.2581,5.2589,5.2608,5.264,5.2646,5.2651,5.2671,5.2677,5.2594,5.2594,5.2594,0,5.2067,5.2128,5.2151,5.2194,5.222,5.2234,5.2276,5.2304,5.2359,5.2377,5.237,5.2459,5.2488,5.2552,5.2565,5.2584,5.2597,5.2583,5.2643,5.2649,5.2654,5.2673,5.268,5.2594,5.2594,5.2594,5.2594,0,5.2136,5.2178,5.2206,5.226,5.229,5.2332,5.2362,5.239,5.2402,5.2424,5.248,5.2515,5.2563,5.258,5.2591,5.2646,5.2641,5.2638,5.2625,5.2661,5.2679,5.2686,5.2595,5.2595,5.2595,5.2595,0,0,5.2172,5.2239,5.2249,5.2275,5.2326,5.2359,5.2403,5.245,5.2474,5.2512,5.2549,5.2609,5.2608,5.2636,5.2651,5.2679,5.272,5.2673,5.2674,5.2681,5.2784,5.2785,5.2793,5.2724,5.2726,5.2727,5.2781,0,5.2218,5.2296,5.2319,5.2385,5.2425,5.244,5.2478,5.2513,5.2536,5.2574,5.2599,5.2641,5.2636,5.2653,5.2682,5.2709,5.2741,5.2706,5.276,5.2761,5.2748,5.2803,5.2804,5.2853,5.2788,5.2789,5.279,0,5.2282,5.2322,5.2392,5.244,5.2458,5.2491,5.2538,5.2573,5.2615,5.263,5.2662,5.2675,5.2721,5.2706,5.2771,5.2747,5.277,5.2788,5.279,5.2795,5.2777,5.2809,5.2869,5.2876,5.2801,5.2801,5.28,0,5.2302,5.2374,5.2425,5.2447,5.2503,5.2527,5.2551,5.2592,5.2619,5.266,5.2678,5.2724,5.2749,5.2784,5.2809,5.2795,5.2872,5.2859,5.2886,5.2885,5.2901,5.2899,5.2964,5.2917,5.2916,5.2916,5.2916,0,5.2351,5.2393,5.2435,5.2467,5.2516,5.2542,5.2589,5.2615,5.2651,5.2688,5.2703,5.2738,5.2769,5.2808,5.2828,5.288,5.2891,5.2904,5.2909,5.2903,5.2901,5.2918,5.2915,5.2918,5.2918,5.2918,5.2917,0,5.2381,5.2411,5.2468,5.2518,5.2531,5.2565,5.2607,5.2639,5.2663,5.271,5.2723,5.2761,5.2808,5.2837,5.2896,5.291,5.2966,5.297,5.2952,5.2954,5.298,5.2977,5.3057,5.307,5.3014,5.3015,5.3015,0,5.241,5.2443,5.2497,5.2523,5.2548,5.259,5.2619,5.2647,5.2676,5.2727,5.2753,5.2801,5.2841,5.2915,5.2948,5.2994,5.2999,5.3024,5.3006,5.2999,5.2999,5.2997,5.3001,5.3027,5.3027,5.3027,5.3028,0,5.2458,5.2472,5.2513,5.256,5.2594,5.2632,5.267,5.2691,5.2725,5.2758,5.2806,5.2837,5.2899,5.2946,5.2996,5.3021,5.3031,5.3034,5.3042,5.3036,5.3024,5.3031,5.296,5.3031,5.3031,5.3031,5.303,5.303,5.2489,5.2519,5.2562,5.2608,5.264,5.2675,5.2708,5.2737,5.2778,5.283,5.2845,5.2896,5.2938,5.3005,5.3032,5.3073,5.3069,5.3081,5.3085,5.3087,5.3088,5.3018,5.3082,5.3082,5.3082,5.3082,5.3081,0,5.2538,5.2567,5.2609,5.2662,5.2698,5.2705,5.2748,5.2777,5.2822,5.2861,5.29,5.2957,5.3004,5.3041,5.309,5.3115,5.3121,5.3127,5.3125,5.3131,5.3088,5.3076,5.3122,5.3122,5.3122,5.3121,5.3121,5.3121,5.2568,5.2621,5.264,5.2708,5.2737,5.2787,5.2812,5.2845,5.2876,5.2938,5.2978,5.3002,5.3041,5.3092,5.3136,5.3146,5.3163,5.3168,5.3179,5.3138,5.3134,5.3129,5.3118,5.3172,5.3172,5.3218,5.3219,5.3219]},{"header":{"parameterUnit":"m.s-1","parameterCategory":1,"la1":30.2991,"la2":30.254,"lo1":-89.0895,"lo2":-89.0444,"dy":0.0017,"dx":0.0017,"nx":28,"ny":28,"refTime":"2024-04-03T09:00:00:Z","depth":0,"parameterNumber":3,"parameterNumberName":"V-component_of_WINDS"},"data":[0,0,0,0,0,0,0,0,0,0,0,0,0,0,0,0,0,0,0,0,0,0,0,0,0,0,0,0,0,0,0,0,0,0,0,0,0,0,0,0,0,0,0,0,0,0,0,0,0,0,0,0,0,0,0,0,0,0,-2.5914,-2.5915,0,-2.5957,-2.5957,-2.5958,-2.5976,-2.5976,-2.5976,-2.5976,-2.6016,-2.6017,-2.6018,0,0,0,0,0,0,0,0,0,0,0,0,0,-2.5847,-2.5848,-2.5914,-2.5915,-2.5915,-2.5957,-2.5957,-2.5958,-2.5976,-2.5976,-2.5976,-2.5976,-2.6016,-2.6017,-2.6018,0,0,0,0,0,0,0,0,0,0,0,0,0,-2.5881,-2.5849,-2.5914,-2.5929,-2.5931,-2.5956,-2.5957,-2.5958,-2.5976,-2.5976,-2.5976,-2.5976,-2.6015,-2.6017,-2.6019,-2.6031,0,0,-2.6024,-2.6024,0,0,0,0,0,0,0,0,-2.5879,-2.5884,-2.5927,-2.5928,-2.593,-2.5961,-2.5948,-2.5982,-2.5976,-2.5959,-2.5976,-2.5976,-2.5998,-2.6001,-2.6009,-2.6033,-2.6034,-2.6024,-2.6025,-2.6026,-2.6026,0,0,0,0,0,0,0,-2.5877,-2.5882,-2.5931,-2.5927,-2.5929,-2.5933,-2.5938,-2.5955,-2.5978,-2.596,-2.5962,-2.5967,-2.5999,-2.6007,-2.601,-2.6035,-2.6024,-2.6025,-2.6026,-2.6027,-2.6072,-2.6073,0,0,0,0,0,0,-2.5872,-2.588,-2.5929,-2.5932,-2.5904,-2.5935,-2.594,-2.5951,-2.5978,-2.5982,-2.5967,-2.5967,-2.6004,-2.6008,-2.6011,-2.6028,-2.6026,-2.6027,-2.6028,-2.6072,-2.6073,-2.6073,0,0,0,0,0,0,-2.5871,-2.5877,-2.5928,-2.5907,-2.5913,-2.5936,-2.5948,-2.5952,-2.5961,-2.5983,-2.5987,-2.5971,-2.6004,-2.6009,-2.6026,-2.603,-2.6028,-2.6029,-2.6072,-2.6072,-2.6073,-2.6062,0,0,0,0,0,0,-2.5869,-2.5876,-2.5881,-2.5907,-2.5914,-2.5943,-2.5948,-2.5953,-2.5964,-2.5965,-2.5988,-2.5992,-2.6005,-2.6024,-2.6028,-2.6032,-2.6031,-2.6072,-2.6072,-2.6073,-2.6062,-2.6061,-2.6061,0,0,0,0,0,-2.5866,-2.5875,-2.5881,-2.5887,-2.5922,-2.5943,-2.5947,-2.5962,-2.5964,-2.5969,-2.5984,-2.5991,-2.6029,-2.6025,-2.603,-2.6035,-2.6072,-2.6072,-2.6072,-2.6062,-2.6062,-2.6061,0,0,0,0,0,0,-2.5848,-2.5879,-2.5886,-2.5903,-2.5921,-2.5946,-2.5953,-2.5961,-2.5977,-2.5978,-2.5995,-2.6,-2.6016,-2.6028,-2.6023,-2.6049,-2.6051,-2.6052,-2.6041,-2.6041,-2.6041,-2.6038,-2.6032,0,0,0,0,0,-2.5847,-2.5862,-2.5888,-2.5901,-2.5909,-2.593,-2.5939,-2.595,-2.5968,-2.5975,-2.5991,-2.6007,-2.6023,-2.6032,-2.6048,-2.6064,-2.6069,-2.607,-2.6069,-2.6069,-2.607,-2.608,-2.608,-2.6074,-2.6074,-2.6074,0,0,-2.5843,-2.5861,-2.587,-2.5898,-2.5912,-2.5927,-2.5935,-2.5951,-2.5962,-2.5977,-2.5995,-2.6007,-2.6026,-2.6043,-2.6051,-2.6053,-2.6073,-2.607,-2.6069,-2.607,-2.608,-2.6081,-2.6081,-2.6074,-2.6074,-2.6074,0,0,-2.5844,-2.5859,-2.5872,-2.5887,-2.591,-2.5924,-2.5927,-2.5951,-2.596,-2.5979,-2.5991,-2.6004,-2.6031,-2.6045,-2.6055,-2.6063,-2.607,-2.6068,-2.6066,-2.6076,-2.6076,-2.6077,-2.608,-2.6081,-2.6069,-2.6069,-2.6068,0,-2.5835,-2.586,-2.5878,-2.5893,-2.5905,-2.5921,-2.5934,-2.5948,-2.5973,-2.5981,-2.5983,-2.6018,-2.6032,-2.6053,-2.6055,-2.6063,-2.6067,-2.6065,-2.6075,-2.6075,-2.6076,-2.6079,-2.6081,-2.6068,-2.6068,-2.6068,-2.6068,0,-2.5849,-2.5866,-2.5874,-2.59,-2.5913,-2.5927,-2.5947,-2.5958,-2.5968,-2.5981,-2.6,-2.6018,-2.6038,-2.6044,-2.6053,-2.6067,-2.6067,-2.6072,-2.6074,-2.6076,-2.6079,-2.6081,-2.6067,-2.6068,-2.6068,-2.6068,0,0,-2.5838,-2.5876,-2.5879,-2.5891,-2.5918,-2.5931,-2.5946,-2.5967,-2.5977,-2.5994,-2.6007,-2.603,-2.6035,-2.6047,-2.6058,-2.6066,-2.6073,-2.607,-2.6071,-2.607,-2.6089,-2.6085,-2.6086,-2.6078,-2.6078,-2.6079,-2.6087,0,-2.5843,-2.5872,-2.5889,-2.5911,-2.5927,-2.5943,-2.5956,-2.5974,-2.5987,-2.6002,-2.6017,-2.6033,-2.6038,-2.6046,-2.6055,-2.607,-2.6077,-2.607,-2.609,-2.609,-2.6084,-2.6088,-2.6084,-2.6092,-2.6089,-2.6089,-2.6089,0,-2.5852,-2.5871,-2.5895,-2.5921,-2.5929,-2.594,-2.5962,-2.5976,-2.5996,-2.6006,-2.602,-2.6032,-2.6048,-2.605,-2.6073,-2.6067,-2.6077,-2.6086,-2.6086,-2.6089,-2.609,-2.609,-2.6094,-2.6095,-2.6091,-2.6091,-2.6091,0,-2.5842,-2.5874,-2.5892,-2.5903,-2.5934,-2.5942,-2.5955,-2.5976,-2.5988,-2.6006,-2.6014,-2.6034,-2.6044,-2.6059,-2.6076,-2.6075,-2.6097,-2.61,-2.6105,-2.6104,-2.6108,-2.6108,-2.6113,-2.6114,-2.6114,-2.6114,-2.6114,0,-2.5845,-2.5859,-2.5889,-2.59,-2.5916,-2.5936,-2.5951,-2.5966,-2.5984,-2.5999,-2.6013,-2.6026,-2.6047,-2.6063,-2.6075,-2.6093,-2.6097,-2.6105,-2.6108,-2.6104,-2.6103,-2.611,-2.611,-2.6115,-2.6115,-2.6115,-2.6115,0,-2.5837,-2.5857,-2.5879,-2.5907,-2.5915,-2.5925,-2.595,-2.5961,-2.5976,-2.5994,-2.5999,-2.6022,-2.6041,-2.606,-2.6084,-2.6093,-2.6111,-2.6115,-2.6104,-2.6106,-2.611,-2.6109,-2.612,-2.6123,-2.6122,-2.6122,-2.6122,0,-2.5837,-2.5849,-2.5879,-2.5891,-2.5904,-2.5922,-2.5935,-2.5955,-2.5967,-2.5993,-2.6001,-2.6022,-2.6039,-2.6069,-2.6087,-2.6107,-2.6111,-2.6114,-2.6114,-2.611,-2.6112,-2.6111,-2.6112,-2.6113,-2.6113,-2.6113,-2.6113,0,-2.5837,-2.5847,-2.5865,-2.5888,-2.5903,-2.5921,-2.594,-2.5948,-2.5972,-2.5986,-2.6006,-2.602,-2.6046,-2.6066,-2.6088,-2.6101,-2.6111,-2.6113,-2.6115,-2.6111,-2.6104,-2.6108,-2.6103,-2.6113,-2.6113,-2.6113,-2.6113,-2.6113,-2.5833,-2.5844,-2.5868,-2.5888,-2.5905,-2.5923,-2.5935,-2.5953,-2.5971,-2.5995,-2.6005,-2.6026,-2.6047,-2.6078,-2.6091,-2.6107,-2.6109,-2.6113,-2.6113,-2.6114,-2.6113,-2.6102,-2.6111,-2.6111,-2.6111,-2.6111,-2.6111,0,-2.5833,-2.585,-2.5868,-2.5895,-2.5911,-2.5921,-2.5943,-2.5955,-2.5974,-2.5993,-2.6011,-2.6035,-2.6055,-2.6075,-2.6097,-2.6106,-2.6111,-2.611,-2.611,-2.6113,-2.611,-2.6106,-2.6106,-2.6106,-2.6106,-2.6106,-2.6106,-2.6106,-2.5835,-2.5855,-2.5868,-2.5897,-2.5913,-2.5934,-2.5946,-2.5962,-2.5978,-2.6005,-2.6022,-2.6036,-2.6056,-2.6079,-2.6098,-2.6103,-2.611,-2.6109,-2.6116,-2.6112,-2.6113,-2.6113,-2.6109,-2.611,-2.611,-2.6117,-2.6117,-2.6117]}]]